When you browse on this site, cookies collect data to enhance your experience and personalize the content and advertising you see.
Visit our Privacy Policy to learn more. By continuing to use the site, you agree to this use of cookies and data.
  • In Österreich
  • Länderverzeichnis
  • Für 7 Tage
  • Wassertemperatur
  • Satellitenkarten
  • Wetterkarte
  • News
  • Widgets
  • user-avatar
    Anmelden

    Stündliche Wetter Graz

    Heute, 20 Juli, Samstag

    Zeit Temperatur Niederschläge Wind Luftdruck Luftfeuchtigkeit
    00:00 +19°C° 0 mm 1 m/S 725 mmHg 89%
    01:00 +19°C° 0 mm 1 m/S 725 mmHg 90%
    02:00 +19°C° 0 mm 1 m/S 725 mmHg 90%
    03:00 +18°C° 0 mm 1 m/S 725 mmHg 89%
    04:00 +18°C° 0 mm 1 m/S 725 mmHg 89%
    05:00 +19°C° 0 mm 1 m/S 725 mmHg 86%
    06:00 +21°C° 0 mm 1 m/S 725 mmHg 83%
    07:00 +23°C° 0 mm 1 m/S 725 mmHg 79%
    08:00 +25°C° 0 mm 1 m/S 726 mmHg 69%
    09:00 +27°C° 0 mm 1 m/S 726 mmHg 59%
    10:00 +29°C° 0 mm 1 m/S 726 mmHg 49%
    11:00 +30°C° 0 mm 1 m/S 726 mmHg 45%
    12:00 +31°C° 0 mm 2 m/S 726 mmHg 41%
    13:00 +32°C° 0 mm 2 m/S 726 mmHg 38%
    14:00 +32°C° 0 mm 2 m/S 726 mmHg 38%
    15:00 +32°C° 0 mm 2 m/S 726 mmHg 38%
    16:00 +32°C° 0 mm 2 m/S 725 mmHg 38%
    17:00 +30°C° 0.1 mm 2 m/S 725 mmHg 49%
    18:00 +28°C° 0.1 mm 1 m/S 725 mmHg 59%
    19:00 +26°C° 0.1 mm 1 m/S 725 mmHg 70%
    20:00 +25°C° 0.2 mm 1 m/S 725 mmHg 74%
    21:00 +23°C° 0.2 mm 1 m/S 726 mmHg 78%
    22:00 +22°C° 0.2 mm 1 m/S 726 mmHg 81%
    23:00 +22°C° 0 mm 1 m/S 726 mmHg 81%

    Morgen, 21 Juli, Sonntag

    Zeit Temperatur Niederschläge Wind Luftdruck Luftfeuchtigkeit
    00:00 +22°C° 0 mm 1 m/S 726 mmHg 81%
    01:00 +22°C° 0 mm 1 m/S 726 mmHg 81%
    02:00 +21°C° 0 mm 1 m/S 726 mmHg 81%
    03:00 +21°C° 0 mm 1 m/S 726 mmHg 81%
    04:00 +19°C° 0 mm 2 m/S 726 mmHg 82%
    05:00 +22°C° 0 mm 1 m/S 726 mmHg 79%
    06:00 +23°C° 0 mm 1 m/S 726 mmHg 76%
    07:00 +24°C° 0 mm 1 m/S 727 mmHg 74%
    08:00 +26°C° 0.1 mm 1 m/S 727 mmHg 66%
    09:00 +28°C° 0.1 mm 1 m/S 728 mmHg 58%
    10:00 +30°C° 0.1 mm 1 m/S 728 mmHg 50%
    11:00 +30°C° 0.4 mm 1 m/S 728 mmHg 51%
    12:00 +30°C° 0.4 mm 1 m/S 728 mmHg 52%
    13:00 +30°C° 0.4 mm 2 m/S 728 mmHg 53%
    14:00 +28°C° 1 mm 2 m/S 728 mmHg 62%
    15:00 +26°C° 1 mm 2 m/S 728 mmHg 72%
    16:00 +24°C° 1 mm 2 m/S 728 mmHg 81%
    17:00 +23°C° 1 mm 2 m/S 728 mmHg 84%
    18:00 +22°C° 1 mm 1 m/S 728 mmHg 87%
    19:00 +21°C° 1 mm 1 m/S 728 mmHg 90%
    20:00 +21°C° 0.3 mm 1 m/S 729 mmHg 90%
    21:00 +21°C° 0.3 mm 1 m/S 729 mmHg 89%
    22:00 +20°C° 0.3 mm 1 m/S 730 mmHg 89%
    23:00 +20°C° 0 mm 1 m/S 730 mmHg 89%

    übermorgen, 22 Juli, Montag

    Zeit Temperatur Niederschläge Wind Luftdruck Luftfeuchtigkeit
    00:00 +20°C° 0 mm 1 m/S 730 mmHg 89%
    01:00 +19°C° 0 mm 1 m/S 730 mmHg 89%
    02:00 +19°C° 0 mm 1 m/S 730 mmHg 89%
    03:00 +19°C° 0 mm 1 m/S 730 mmHg 89%
    04:00 +18°C° 0 mm 1 m/S 730 mmHg 89%
    05:00 +19°C° 0 mm 1 m/S 730 mmHg 87%
    06:00 +20°C° 0 mm 1 m/S 730 mmHg 84%
    07:00 +22°C° 0 mm 1 m/S 731 mmHg 82%
    08:00 +24°C° 0 mm 1 m/S 731 mmHg 72%
    09:00 +26°C° 0 mm 1 m/S 731 mmHg 62%
    10:00 +28°C° 0 mm 1 m/S 731 mmHg 53%
    11:00 +29°C° 0 mm 1 m/S 731 mmHg 52%
    12:00 +29°C° 0 mm 1 m/S 731 mmHg 50%
    13:00 +30°C° 0 mm 1 m/S 730 mmHg 49%
    14:00 +29°C° 0.1 mm 1 m/S 730 mmHg 51%
    15:00 +29°C° 0.1 mm 1 m/S 730 mmHg 52%
    16:00 +29°C° 0.1 mm 1 m/S 730 mmHg 54%
    17:00 +27°C° 0.1 mm 1 m/S 730 mmHg 62%
    18:00 +26°C° 0.1 mm 1 m/S 729 mmHg 71%
    19:00 +24°C° 0.1 mm 1 m/S 729 mmHg 79%
    20:00 +23°C° 0 mm 1 m/S 730 mmHg 81%
    21:00 +22°C° 0 mm 1 m/S 730 mmHg 83%
    22:00 +21°C° 0 mm 1 m/S 730 mmHg 85%
    23:00 +21°C° 0 mm 1 m/S 730 mmHg 86%

    23 Juli, Dienstag

    Zeit Temperatur Niederschläge Wind Luftdruck Luftfeuchtigkeit
    00:00 +21°C° 0 mm 1 m/S 730 mmHg 86%
    01:00 +20°C° 0 mm 1 m/S 730 mmHg 87%
    02:00 +20°C° 0 mm 1 m/S 729 mmHg 88%
    03:00 +19°C° 0 mm 1 m/S 729 mmHg 88%
    04:00 +19°C° 0 mm 1 m/S 729 mmHg 89%
    05:00 +18°C° 0 mm 0 m/S 729 mmHg 85%
    06:00 +19°C° 0 mm 0 m/S 729 mmHg 81%
    07:00 +21°C° 0 mm 0 m/S 729 mmHg 77%
    08:00 +23°C° 0 mm 0 m/S 730 mmHg 68%
    09:00 +27°C° 0 mm 1 m/S 730 mmHg 58%
    10:00 +29°C° 0 mm 1 m/S 730 mmHg 49%
    11:00 +30°C° 0 mm 1 m/S 730 mmHg 46%
    12:00 +31°C° 0 mm 1 m/S 729 mmHg 43%
    13:00 +32°C° 0 mm 1 m/S 729 mmHg 40%
    14:00 +31°C° 0 mm 1 m/S 729 mmHg 41%
    15:00 +31°C° 0 mm 2 m/S 728 mmHg 43%
    16:00 +31°C° 0 mm 2 m/S 728 mmHg 44%
    17:00 +29°C° 0 mm 1 m/S 728 mmHg 52%
    18:00 +27°C° 0 mm 1 m/S 728 mmHg 61%
    19:00 +26°C° 0 mm 1 m/S 727 mmHg 69%
    20:00 +24°C° 0 mm 1 m/S 728 mmHg 72%
    21:00 +21°C° 0 mm 0 m/S 728 mmHg 74%
    22:00 +20°C° 0 mm 0 m/S 728 mmHg 77%
    23:00 +19°C° 0 mm 0 m/S 728 mmHg 78%

    24 Juli, Mittwoch

    Zeit Temperatur Niederschläge Wind Luftdruck Luftfeuchtigkeit
    00:00 +19°C° 0 mm 0 m/S 728 mmHg 79%
    01:00 +18°C° 0 mm 0 m/S 728 mmHg 81%
    02:00 +18°C° 0 mm 0 m/S 727 mmHg 82%
    03:00 +20°C° 0 mm 1 m/S 727 mmHg 82%
    04:00 +19°C° 0 mm 1 m/S 727 mmHg 83%
    05:00 +19°C° 0 mm 0 m/S 727 mmHg 78%
    06:00 +20°C° 0 mm 0 m/S 728 mmHg 73%
    07:00 +22°C° 0 mm 0 m/S 728 mmHg 68%
    08:00 +24°C° 0 mm 0 m/S 728 mmHg 62%
    09:00 +28°C° 0 mm 1 m/S 728 mmHg 56%
    10:00 +30°C° 0 mm 1 m/S 728 mmHg 49%
    11:00 +30°C° 0 mm 1 m/S 728 mmHg 46%
    12:00 +31°C° 0 mm 2 m/S 728 mmHg 44%
    13:00 +32°C° 0 mm 2 m/S 727 mmHg 41%
    14:00 +32°C° 0 mm 2 m/S 727 mmHg 41%
    15:00 +32°C° 0 mm 2 m/S 727 mmHg 41%
    16:00 +31°C° 0 mm 2 m/S 727 mmHg 42%
    17:00 +30°C° 0 mm 2 m/S 726 mmHg 50%
    18:00 +28°C° 0 mm 1 m/S 726 mmHg 58%
    19:00 +26°C° 0 mm 1 m/S 726 mmHg 67%
    20:00 +25°C° 0 mm 1 m/S 726 mmHg 68%
    21:00 +24°C° 0 mm 1 m/S 727 mmHg 69%
    22:00 +23°C° 0 mm 1 m/S 727 mmHg 70%
    23:00 +22°C° 0 mm 1 m/S 727 mmHg 71%

    25 Juli, Donnerstag

    Zeit Temperatur Niederschläge Wind Luftdruck Luftfeuchtigkeit
    00:00 +22°C° 0 mm 1 m/S 727 mmHg 72%
    01:00 +21°C° 0 mm 1 m/S 727 mmHg 73%
    02:00 +21°C° 0 mm 1 m/S 726 mmHg 75%
    03:00 +20°C° 0 mm 1 m/S 726 mmHg 76%
    04:00 +20°C° 0 mm 1 m/S 726 mmHg 77%
    05:00 +19°C° 0 mm 0 m/S 726 mmHg 74%
    06:00 +21°C° 0 mm 0 m/S 727 mmHg 70%
    07:00 +22°C° 0 mm 0 m/S 727 mmHg 67%
    08:00 +24°C° 0 mm 0 m/S 727 mmHg 61%
    09:00 +28°C° 0 mm 1 m/S 727 mmHg 54%
    10:00 +30°C° 0 mm 1 m/S 727 mmHg 47%
    11:00 +30°C° 0 mm 2 m/S 727 mmHg 45%
    12:00 +31°C° 0 mm 2 m/S 726 mmHg 42%
    13:00 +32°C° 0 mm 2 m/S 726 mmHg 40%
    14:00 +32°C° 0 mm 2 m/S 726 mmHg 41%
    15:00 +32°C° 0 mm 2 m/S 726 mmHg 42%
    16:00 +31°C° 0 mm 3 m/S 725 mmHg 44%
    17:00 +30°C° 0 mm 2 m/S 725 mmHg 53%
    18:00 +28°C° 0 mm 2 m/S 725 mmHg 62%
    19:00 +26°C° 0 mm 1 m/S 725 mmHg 72%
    20:00 +25°C° 0 mm 1 m/S 725 mmHg 75%
    21:00 +24°C° 0 mm 1 m/S 725 mmHg 78%
    22:00 +21°C° 0 mm 0 m/S 725 mmHg 81%
    23:00 +20°C° 0 mm 0 m/S 725 mmHg 82%
    Mehr zeigen